| time (UTC) | temp F | wind direction | speed knots | gust knots | rain 1hr in | rain 24hr in | rain mn in | humidity % | barometer mb |
| 20260505163505 | 77 | 47 | 5.2 | 12.2 | 0.00 | 0.00 | 0.00 | 87 | 1016.5 |
| 20260505163006 | 78 | 58 | 2.6 | 12.2 | 0.00 | 0.00 | 0.00 | 86 | 1016.5 |
| 20260505162505 | 78 | 52 | 2.6 | 7.0 | 0.00 | 0.00 | 0.00 | 88 | 1016.5 |
| 20260505162005 | 78 | 51 | 1.7 | 7.0 | 0.00 | 0.00 | 0.00 | 89 | 1016.7 |
| 20260505161505 | 77 | 65 | 4.3 | 7.0 | 0.00 | 0.00 | 0.00 | 90 | 1016.9 |
| 20260505161026 | 77 | 59 | 1.7 | 5.2 | 0.00 | 0.00 | 0.00 | 92 | 1017.1 |
| 20260505160505 | 76 | 72 | 3.5 | 7.8 | 0.00 | 0.00 | 0.00 | 92 | 1017.0 |
| 20260505153005 | 76 | 58 | 2.6 | 5.2 | 0.00 | 0.00 | 0.00 | 89 | 1017.5 |
| 20260505152505 | 76 | 56 | 2.6 | 5.2 | 0.00 | 0.00 | 0.00 | 88 | 1017.5 |
| 20260505152005 | 76 | 22 | 3.5 | 5.2 | 0.00 | 0.00 | 0.00 | 89 | 1017.6 |
| 20260505151505 | 75 | 23 | 1.7 | 4.3 | 0.00 | 0.00 | 0.00 | 90 | 1017.8 |
| 20260505151005 | 75 | 18 | 2.6 | 5.2 | 0.00 | 0.00 | 0.00 | 90 | 1017.8 |
| 20260505150526 | 74 | 10 | 1.7 | 5.2 | 0.00 | 0.00 | 0.00 | 90 | 1018.0 |
| 20260505140504 | 72 | 14 | 3.5 | 7.0 | 0.00 | 0.00 | 0.00 | 93 | 1018.4 |
| 20260505125025 | 71 | 2 | 1.7 | 7.8 | 0.00 | 0.00 | 0.00 | 93 | 1018.4 |
| 20260505124504 | 71 | 32 | 1.7 | 7.8 | 0.00 | 0.00 | 0.00 | 93 | 1018.5 |
| 20260505124004 | 71 | 36 | 2.6 | 7.8 | 0.00 | 0.00 | 0.00 | 93 | 1018.2 |
| 20260505123504 | 70 | 42 | 3.5 | 8.7 | 0.00 | 0.00 | 0.00 | 93 | 1018.1 |
| 20260505123004 | 71 | 63 | 1.7 | 8.7 | 0.00 | 0.00 | 0.00 | 93 | 1018.2 |
| 20260505122504 | 70 | 74 | 2.6 | 7.8 | 0.00 | 0.00 | 0.00 | 94 | 1018.1 |
| 20260505122004 | 69 | 59 | 2.6 | 7.8 | 0.00 | 0.00 | 0.00 | 94 | 1018.3 |
| 20260505121504 | 69 | 52 | 1.7 | 5.2 | 0.00 | 0.00 | 0.00 | 94 | 1018.1 |
| 20260505121004 | 69 | 72 | 0.9 | 5.2 | 0.00 | 0.00 | 0.00 | 94 | 1018.2 |
| 20260505120504 | 68 | 71 | 2.6 | 5.2 | 0.00 | 0.00 | 0.00 | 94 | 1018.1 |
| 20260505120005 | 68 | 68 | 2.6 | 5.2 | 0.00 | 0.00 | 0.00 | 94 | 1018.0 |
| 20260505115525 | 67 | 94 | 1.7 | 5.2 | 0.00 | 0.00 | 0.00 | 94 | 1018.0 |
| 20260505115004 | 67 | 73 | 1.7 | 5.2 | 0.00 | 0.00 | 0.00 | 94 | 1018.2 |
| 20260505114504 | 67 | 56 | 1.7 | 5.2 | 0.00 | 0.00 | 0.00 | 94 | 1018.0 |
| 20260505114004 | 67 | 73 | 0.0 | 5.2 | 0.00 | 0.00 | 0.00 | 94 | 1017.9 |
| 20260505113504 | 66 | 75 | 1.7 | 5.2 | 0.00 | 0.00 | 0.00 | 94 | 1017.9 |
| 20260505112504 | 66 | 85 | 0.9 | 4.3 | 0.00 | 0.00 | 0.00 | 99 | 1004.9 |
| 20260505112005 | 66 | 74 | 1.7 | 2.6 | 0.00 | 0.00 | 0.00 | 99 | 1005.1 |
| 20260505111505 | 65 | 113 | 0.0 | 1.7 | 0.00 | 0.00 | 0.00 | 99 | 1005.1 |
| 20260505111004 | 65 | 113 | 0.0 | 1.7 | 0.00 | 0.00 | 0.00 | 99 | 1005.0 |
| 20260505110504 | 65 | 90 | 0.0 | 1.7 | 0.00 | 0.00 | 0.00 | 99 | 1005.2 |
| 20260505025004 | 67 | 29 | 3.5 | 7.8 | 0.00 | 0.00 | 0.00 | 94 | 1017.4 |
| 20260505024524 | 68 | 359 | 0.9 | 7.8 | 0.00 | 0.00 | 0.00 | 94 | 1017.4 |
| 20260505024005 | 68 | 7 | 1.7 | 8.7 | 0.00 | 0.00 | 0.00 | 94 | 1017.2 |
| 20260505023526 | 68 | 32 | 3.5 | 8.7 | 0.00 | 0.00 | 0.00 | 94 | 1017.2 |
| 20260505023005 | 68 | 33 | 6.1 | 8.7 | 0.00 | 0.00 | 0.00 | 94 | 1017.2 |
| 20260505022505 | 68 | 31 | 6.1 | 8.7 | 0.00 | 0.00 | 0.00 | 94 | 1017.1 |
| 20260505022005 | 68 | 37 | 2.6 | 11.3 | 0.00 | 0.00 | 0.00 | 93 | 1017.2 |
| 20260505021505 | 68 | 32 | 2.6 | 11.3 | 0.00 | 0.00 | 0.00 | 93 | 1017.2 |
| 20260505021005 | 68 | 31 | 4.3 | 11.3 | 0.00 | 0.00 | 0.00 | 93 | 1017.0 |
| 20260505020526 | 68 | 44 | 4.3 | 9.6 | 0.00 | 0.00 | 0.00 | 93 | 1017.0 |
| 20260505020005 | 68 | 27 | 4.3 | 9.6 | 0.00 | 0.00 | 0.00 | 93 | 1017.1 |
| 20260505015505 | 68 | 21 | 3.5 | 12.2 | 0.00 | 0.00 | 0.00 | 93 | 1017.0 |
| 20260505015005 | 68 | 14 | 4.3 | 12.2 | 0.00 | 0.00 | 0.00 | 93 | 1017.0 |
| 20260505014505 | 68 | 19 | 5.2 | 11.3 | 0.00 | 0.00 | 0.00 | 93 | 1017.1 |
| 20260505014005 | 67 | 25 | 4.3 | 9.6 | 0.00 | 0.00 | 0.00 | 94 | 1017.1 |
| 20260505013505 | 68 | 14 | 5.2 | 9.6 | 0.00 | 0.00 | 0.00 | 93 | 1017.0 |
| 20260505013005 | 67 | 360 | 3.5 | 9.6 | 0.00 | 0.00 | 0.00 | 93 | 1017.0 |
| 20260505012504 | 67 | 359 | 4.3 | 8.7 | 0.00 | 0.00 | 0.00 | 94 | 1017.0 |
| 20260505012005 | 67 | 10 | 2.6 | 8.7 | 0.00 | 0.00 | 0.00 | 94 | 1017.0 |
| 20260505011505 | 67 | 15 | 3.5 | 9.6 | 0.00 | 0.00 | 0.00 | 94 | 1016.9 |
| 20260505011005 | 67 | 19 | 4.3 | 9.6 | 0.00 | 0.00 | 0.00 | 93 | 1017.0 |
| 20260505010505 | 67 | 9 | 5.2 | 12.2 | 0.00 | 0.00 | 0.00 | 93 | 1016.9 |
| 20260505010005 | 67 | 12 | 2.6 | 12.2 | 0.00 | 0.00 | 0.00 | 93 | 1016.9 |
| 20260505005526 | 68 | 10 | 4.3 | 12.2 | 0.00 | 0.00 | 0.00 | 93 | 1016.8 |
| 20260505005005 | 68 | 20 | 2.6 | 9.6 | 0.00 | 0.00 | 0.00 | 92 | 1016.9 |
| 20260505004526 | 68 | 15 | 5.2 | 9.6 | 0.00 | 0.00 | 0.00 | 92 | 1016.7 |
| 20260505004005 | 67 | 360 | 0.9 | 9.6 | 0.00 | 0.00 | 0.00 | 92 | 1017.0 |
| 20260505003525 | 67 | 7 | 1.7 | 9.6 | 0.00 | 0.00 | 0.00 | 92 | 1016.8 |
| 20260505003005 | 67 | 17 | 4.3 | 7.8 | 0.00 | 0.00 | 0.00 | 91 | 1016.9 |
| 20260505002505 | 67 | 28 | 3.5 | 7.8 | 0.00 | 0.00 | 0.00 | 91 | 1016.9 |
| 20260505002005 | 67 | 43 | 1.7 | 7.0 | 0.00 | 0.00 | 0.00 | 92 | 1016.8 |
| 20260505001504 | 67 | 58 | 2.6 | 7.0 | 0.00 | 0.00 | 0.00 | 92 | 1016.6 |
| 20260505001004 | 66 | 315 | 0.0 | 2.6 | 0.00 | 0.00 | 0.00 | 92 | 1016.6 |
| 20260505000504 | 66 | 19 | 0.0 | 2.6 | 0.00 | 0.00 | 0.00 | 92 | 1016.5 |
| 20260505000004 | 66 | 40 | 0.0 | 1.7 | 0.00 | 0.00 | 0.00 | 92 | 1016.4 |
| 20260504235525 | 65 | 0 | 0.0 | 0.0 | 0.00 | 0.00 | 0.00 | 93 | 1016.5 |
| 20260504235004 | 65 | 0 | 0.0 | 0.0 | 0.00 | 0.00 | 0.00 | 93 | 1016.4 |
| 20260504234504 | 65 | 0 | 0.0 | 0.0 | 0.00 | 0.00 | 0.00 | 94 | 1016.3 |
| 20260504234004 | 64 | 0 | 0.0 | 0.0 | 0.00 | 0.00 | 0.00 | 93 | 1016.3 |
| 20260504233504 | 64 | 0 | 0.0 | 0.0 | 0.00 | 0.00 | 0.00 | 93 | 1016.3 |
| 20260504233025 | 64 | 67 | 0.0 | 1.7 | 0.00 | 0.00 | 0.00 | 93 | 1016.1 |
| 20260504232504 | 65 | 81 | 0.0 | 4.3 | 0.00 | 0.00 | 0.00 | 93 | 1016.1 |
| 20260504232025 | 65 | 73 | 0.0 | 4.3 | 0.00 | 0.00 | 0.00 | 92 | 1016.0 |
| 20260504231504 | 65 | 63 | 0.0 | 4.3 | 0.00 | 0.00 | 0.00 | 92 | 1015.9 |
| 20260504231004 | 64 | 68 | 0.0 | 4.3 | 0.00 | 0.00 | 0.00 | 91 | 1015.9 |
| 20260504230504 | 64 | 49 | 0.9 | 4.3 | 0.00 | 0.00 | 0.00 | 91 | 1015.9 |
| 20260504230025 | 64 | 0 | 0.0 | 0.0 | 0.00 | 0.00 | 0.00 | 92 | 1015.8 |
| 20260504225504 | 63 | 0 | 0.0 | 0.0 | 0.00 | 0.00 | 0.00 | 92 | 1015.7 |
| 20260504225004 | 63 | 180 | 0.0 | 4.3 | 0.00 | 0.00 | 0.00 | 92 | 1015.7 |
| 20260504224504 | 63 | 180 | 0.0 | 4.3 | 0.00 | 0.00 | 0.00 | 92 | 1015.7 |
| 20260504224025 | 63 | 0 | 0.0 | 0.0 | 0.00 | 0.00 | 0.00 | 92 | 1015.7 |
| 20260504223504 | 62 | 0 | 0.0 | 0.0 | 0.00 | 0.00 | 0.00 | 91 | 1015.7 |
| 20260504223004 | 63 | 0 | 0.0 | 0.0 | 0.00 | 0.00 | 0.00 | 91 | 1015.7 |
| 20260504222504 | 63 | 0 | 0.0 | 0.0 | 0.00 | 0.00 | 0.00 | 90 | 1015.5 |
| 20260504222004 | 64 | 0 | 0.0 | 0.0 | 0.00 | 0.00 | 0.00 | 90 | 1015.3 |
| 20260504221525 | 64 | 0 | 0.0 | 0.0 | 0.00 | 0.00 | 0.00 | 90 | 1015.3 |
| 20260504221004 | 64 | 0 | 0.0 | 0.0 | 0.00 | 0.00 | 0.00 | 89 | 1015.3 |
| 20260504220525 | 64 | 0 | 0.0 | 0.0 | 0.00 | 0.00 | 0.00 | 88 | 1015.2 |
| 20260504220004 | 65 | 0 | 0.0 | 0.0 | 0.00 | 0.00 | 0.00 | 87 | 1015.3 |
| 20260504215504 | 65 | 0 | 0.0 | 0.0 | 0.00 | 0.00 | 0.00 | 86 | 1015.3 |
| 20260504215004 | 66 | 90 | 0.0 | 1.7 | 0.00 | 0.00 | 0.00 | 85 | 1015.2 |
| 20260504214504 | 66 | 81 | 0.0 | 1.7 | 0.00 | 0.00 | 0.00 | 83 | 1015.3 |
| 20260504214004 | 67 | 78 | 0.0 | 1.7 | 0.00 | 0.00 | 0.00 | 81 | 1015.1 |
| 20260504213504 | 67 | 58 | 0.0 | 2.6 | 0.00 | 0.00 | 0.00 | 80 | 1015.0 |
| 20260504213004 | 67 | 78 | 0.0 | 5.2 | 0.00 | 0.00 | 0.00 | 79 | 1014.9 |
| 20260504212504 | 68 | 84 | 0.9 | 5.2 | 0.00 | 0.00 | 0.00 | 78 | 1014.8 |
| 20260504212004 | 68 | 87 | 0.9 | 5.2 | 0.00 | 0.00 | 0.00 | 77 | 1014.7 |
| 20260504211504 | 69 | 90 | 0.9 | 2.6 | 0.00 | 0.00 | 0.00 | 76 | 1014.7 |
| 20260504211025 | 69 | 0 | 0.0 | 0.0 | 0.00 | 0.00 | 0.00 | 76 | 1014.6 |
| 20260504210504 | 69 | 0 | 0.0 | 0.0 | 0.00 | 0.00 | 0.00 | 75 | 1014.8 |
| 20260504210004 | 70 | 0 | 0.0 | 0.0 | 0.00 | 0.00 | 0.00 | 73 | 1014.9 |
| 20260504205503 | 70 | 0 | 0.0 | 0.0 | 0.00 | 0.00 | 0.00 | 72 | 1014.9 |
| 20260504205003 | 70 | 0 | 0.0 | 0.0 | 0.00 | 0.00 | 0.00 | 71 | 1014.9 |
| 20260504204504 | 71 | 0 | 0.0 | 0.0 | 0.00 | 0.00 | 0.00 | 71 | 1015.0 |
| 20260504204004 | 71 | 0 | 0.0 | 0.0 | 0.00 | 0.00 | 0.00 | 68 | 1015.0 |
| 20260504203503 | 71 | 103 | 0.0 | 2.6 | 0.00 | 0.00 | 0.00 | 67 | 1014.9 |
| 20260504203025 | 72 | 97 | 0.0 | 2.6 | 0.00 | 0.00 | 0.00 | 68 | 1015.0 |
| 20260504202503 | 72 | 51 | 0.0 | 4.3 | 0.00 | 0.00 | 0.00 | 67 | 1015.2 |
| 20260504202003 | 72 | 33 | 0.0 | 5.2 | 0.00 | 0.00 | 0.00 | 66 | 1015.0 |
| 20260504201503 | 72 | 21 | 1.7 | 7.0 | 0.00 | 0.00 | 0.00 | 63 | 1015.1 |
| 20260504201003 | 73 | 53 | 2.6 | 8.7 | 0.00 | 0.00 | 0.00 | 62 | 1015.2 |
| 20260504200527 | 73 | 48 | 2.6 | 8.7 | 0.00 | 0.00 | 0.00 | 61 | 1015.2 |
| 20260504200027 | 73 | 42 | 3.5 | 7.0 | 0.00 | 0.00 | 0.00 | 62 | 1015.2 |
| 20260504195505 | 73 | 31 | 2.6 | 8.7 | 0.00 | 0.00 | 0.00 | 62 | 1015.3 |
| 20260504195006 | 73 | 22 | 6.1 | 8.7 | 0.00 | 0.00 | 0.00 | 61 | 1015.5 |
| 20260504194505 | 73 | 26 | 3.5 | 7.8 | 0.00 | 0.00 | 0.00 | 62 | 1015.4 |
| 20260504194027 | 74 | 25 | 3.5 | 7.8 | 0.00 | 0.00 | 0.00 | 63 | 1015.5 |
| 20260504193505 | 74 | 33 | 4.3 | 7.8 | 0.00 | 0.00 | 0.00 | 62 | 1015.6 |
| 20260504193005 | 74 | 40 | 1.7 | 7.8 | 0.00 | 0.00 | 0.00 | 62 | 1015.4 |
| 20260504192505 | 74 | 50 | 2.6 | 7.8 | 0.00 | 0.00 | 0.00 | 61 | 1015.4 |
| 20260504192026 | 75 | 28 | 3.5 | 7.8 | 0.00 | 0.00 | 0.00 | 60 | 1015.6 |
| 20260504191526 | 74 | 31 | 3.5 | 8.7 | 0.00 | 0.00 | 0.00 | 61 | 1015.6 |
| 20260504191005 | 75 | 63 | 4.3 | 8.7 | 0.00 | 0.00 | 0.00 | 59 | 1015.6 |
| 20260504190505 | 74 | 47 | 1.7 | 8.7 | 0.00 | 0.00 | 0.00 | 60 | 1015.5 |
| 20260504190005 | 74 | 21 | 1.7 | 9.6 | 0.00 | 0.00 | 0.00 | 59 | 1015.5 |
| 20260504185526 | 74 | 12 | 5.2 | 9.6 | 0.00 | 0.00 | 0.00 | 57 | 1015.5 |
| 20260504185005 | 74 | 27 | 3.5 | 7.8 | 0.00 | 0.00 | 0.00 | 57 | 1015.5 |
| 20260504184505 | 76 | 43 | 2.6 | 7.0 | 0.00 | 0.00 | 0.00 | 60 | 1015.5 |
| 20260504184005 | 76 | 12 | 0.9 | 5.2 | 0.00 | 0.00 | 0.00 | 60 | 1015.4 |
| 20260504183526 | 76 | 357 | 1.7 | 7.8 | 0.00 | 0.00 | 0.00 | 61 | 1015.5 |
| 20260504183005 | 75 | 334 | 2.6 | 7.8 | 0.00 | 0.00 | 0.00 | 60 | 1015.6 |
| 20260504182526 | 75 | 23 | 1.7 | 5.2 | 0.00 | 0.00 | 0.00 | 61 | 1015.5 |
| 20260504182005 | 74 | 40 | 2.6 | 7.8 | 0.00 | 0.00 | 0.00 | 61 | 1015.7 |
| 20260504181505 | 74 | 27 | 3.5 | 7.8 | 0.00 | 0.00 | 0.00 | 61 | 1015.9 |
| 20260504181026 | 74 | 34 | 2.6 | 7.0 | 0.00 | 0.00 | 0.00 | 62 | 1016.0 |
| 20260504180505 | 75 | 49 | 0.9 | 5.2 | 0.00 | 0.00 | 0.00 | 62 | 1016.0 |
| 20260504180005 | 74 | 63 | 3.5 | 5.2 | 0.00 | 0.00 | 0.00 | 61 | 1016.0 |
| 20260504175505 | 75 | 42 | 0.0 | 7.0 | 0.00 | 0.00 | 0.00 | 61 | 1016.1 |
| 20260504175005 | 75 | 19 | 0.0 | 7.0 | 0.00 | 0.00 | 0.00 | 62 | 1016.2 |
| 20260504174505 | 74 | 55 | 3.5 | 7.0 | 0.00 | 0.00 | 0.00 | 63 | 1016.3 |
| 20260504174026 | 74 | 66 | 3.5 | 7.8 | 0.00 | 0.00 | 0.00 | 64 | 1016.4 |
| 20260504173505 | 72 | 62 | 3.5 | 7.8 | 0.00 | 0.00 | 0.00 | 66 | 1016.4 |
| 20260504173005 | 72 | 27 | 1.7 | 7.8 | 0.00 | 0.00 | 0.00 | 64 | 1016.5 |
| 20260504172505 | 72 | 14 | 3.5 | 7.0 | 0.00 | 0.00 | 0.00 | 63 | 1016.7 |
| 20260504172005 | 72 | 352 | 1.7 | 7.0 | 0.00 | 0.00 | 0.00 | 63 | 1016.9 |
| 20260504171526 | 73 | 348 | 2.6 | 7.0 | 0.00 | 0.00 | 0.00 | 62 | 1016.8 |
| 20260504171005 | 73 | 10 | 1.7 | 7.0 | 0.00 | 0.00 | 0.00 | 62 | 1016.8 |
| 20260504170505 | 73 | 23 | 2.6 | 7.8 | 0.00 | 0.00 | 0.00 | 62 | 1016.8 |